EW5058 Weather Reports


Display with metric or nautical units.
time (UTC)temp
F
wind
direction
speed
MPH
gust
MPH
rain 1hr
in
rain 24hr
in
rain mn
in
humidity
%
barometer
mb
20260509071818 59 158 1.0 2.0 0.00 0.00 0.00 83 1012.7
20260509070818 59 135 2.0 5.0 0.00 0.00 0.00 83 1012.6
20260509065820 59 158 1.0 2.0 0.00 0.00 0.00 82 1012.7
20260509064818 59 180 1.0 2.0 0.00 0.00 0.00 82 1012.7
20260509063820 59 90 1.0 4.0 0.00 0.00 0.00 81 1012.8
20260509062818 59 180 3.0 6.0 0.00 0.00 0.00 81 1012.9
20260509061818 59 158 1.0 2.0 0.00 0.00 0.00 81 1013.0
20260509060820 59 180 1.0 1.0 0.00 0.00 0.00 80 1013.0
20260509055820 59 180 3.0 4.0 0.00 0.00 0.00 80 1013.0
20260509054820 58 180 6.0 11.0 0.00 0.00 0.00 81 1013.0
20260509053820 58 180 2.0 4.0 0.00 0.00 0.00 82 1013.0
20260509052818 58 180 3.0 7.0 0.00 0.00 0.00 82 1013.0
20260509051818 58 180 2.0 6.0 0.00 0.00 0.00 81 1013.1
20260509050820 58 158 2.0 6.0 0.00 0.00 0.00 80 1013.1
20260509045840 58 180 3.0 8.0 0.00 0.00 0.00 80 1013.0
20260509044818 58 203 3.0 8.0 0.00 0.00 0.00 79 1013.1
20260509043819 58 180 2.0 4.0 0.00 0.00 0.00 79 1013.1
20260509042820 59 203 3.0 5.0 0.00 0.00 0.00 79 1013.3
20260509041821 58 158 2.0 8.0 0.00 0.00 0.00 79 1013.3
20260509040820 58 203 5.0 11.0 0.00 0.00 0.00 79 1013.4
20260509035819 59 180 2.0 5.0 0.00 0.00 0.00 78 1013.5
20260509034819 59 158 4.0 6.0 0.00 0.00 0.00 78 1013.5
20260509033819 59 203 2.0 4.0 0.00 0.00 0.00 77 1013.4
20260509032819 59 135 1.0 3.0 0.00 0.00 0.00 77 1013.4
20260509031819 59 180 1.0 2.0 0.00 0.00 0.00 76 1013.6
20260509030819 59 158 3.0 8.0 0.00 0.00 0.00 76 1013.6
20260509025819 59 203 2.0 4.0 0.00 0.00 0.00 75 1013.5
20260509024819 59 158 1.0 2.0 0.00 0.00 0.00 74 1013.4
20260509023819 59 158 3.0 6.0 0.00 0.00 0.00 74 1013.3
20260509022819 59 158 2.0 5.0 0.00 0.00 0.00 73 1013.3
20260509021819 59 180 1.0 2.0 0.00 0.00 0.00 72 1013.4
20260509020819 59 180 1.0 4.0 0.00 0.00 0.00 72 1013.4
20260509015819 60 180 3.0 8.0 0.00 0.00 0.00 71 1013.4
20260509014818 60 180 3.0 9.0 0.00 0.00 0.00 70 1013.4
20260509013819 60 180 1.0 4.0 0.00 0.00 0.00 69 1013.3
20260509012859 60 113 1.0 3.0 0.00 0.00 0.00 68 1013.2
20260509011818 60 158 4.0 8.0 0.00 0.00 0.00 68 1013.3
20260509010819 60 180 2.0 4.0 0.00 0.00 0.00 68 1013.1
20260509005818 61 135 2.0 7.0 0.00 0.00 0.00 67 1012.9
20260509004838 61 180 5.0 9.0 0.00 0.00 0.00 66 1012.9
20260509003819 61 158 2.0 7.0 0.00 0.00 0.00 65 1012.8
20260509002839 61 203 1.0 3.0 0.00 0.00 0.00 63 1012.7
20260509001818 61 225 1.0 3.0 0.00 0.00 0.00 62 1012.6
20260509000818 62 203 2.0 4.0 0.00 0.00 0.00 61 1012.6
20260508235819 62 180 1.0 3.0 0.00 0.00 0.00 59 1012.5
20260508234838 62 180 4.0 11.0 0.00 0.00 0.00 58 1012.3
20260508233818 63 158 2.0 4.0 0.00 0.00 0.00 57 1012.4
20260508232818 63 180 1.0 3.0 0.00 0.00 0.00 56 1012.2
20260508231818 63 135 3.0 4.0 0.00 0.00 0.00 55 1012.3
20260508230838 63 158 2.0 5.0 0.00 0.00 0.00 53 1012.2
20260508225818 64 180 2.0 3.0 0.00 0.00 0.00 52 1012.1
20260508224818 64 158 4.0 9.0 0.00 0.00 0.00 51 1012.3
20260508223818 64 180 5.0 9.0 0.00 0.00 0.00 51 1012.1
20260508222838 64 180 5.0 11.0 0.00 0.00 0.00 53 1012.1
20260508221819 65 180 4.0 7.0 0.00 0.00 0.00 50 1012.2
20260508220818 66 158 5.0 11.0 0.00 0.00 0.00 49 1012.2
20260508215818 66 180 3.0 5.0 0.00 0.00 0.00 49 1012.1
20260508214819 66 180 3.0 7.0 0.00 0.00 0.00 49 1012.2
20260508213818 66 158 6.0 12.0 0.00 0.00 0.00 48 1012.1
20260508212818 66 180 6.0 10.0 0.00 0.00 0.00 50 1012.1
20260508211818 67 158 7.0 11.0 0.00 0.00 0.00 48 1012.1
20260508210819 67 180 2.0 4.0 0.00 0.00 0.00 50 1012.1
20260508205820 67 180 4.0 6.0 0.00 0.00 0.00 48 1012.2
20260508204838 67 180 3.0 5.0 0.00 0.00 0.00 48 1012.3
20260508203818 67 180 5.0 9.0 0.00 0.00 0.00 46 1012.4
20260508202820 68 203 5.0 9.0 0.00 0.00 0.00 45 1012.5
20260508201820 68 180 5.0 11.0 0.00 0.00 0.00 46 1012.7
20260508200818 68 180 5.0 8.0 0.00 0.00 0.00 46 1012.9
20260508195819 68 180 4.0 9.0 0.00 0.00 0.00 49 1012.9
20260508194820 68 203 4.0 12.0 0.00 0.00 0.00 46 1012.9
20260508193820 68 158 4.0 9.0 0.00 0.00 0.00 49 1013.0
20260508192820 68 180 4.0 9.0 0.00 0.00 0.00 44 1013.1
20260508191820 68 180 4.0 6.0 0.00 0.00 0.00 46 1013.3
20260508190820 69 180 3.0 7.0 0.00 0.00 0.00 47 1013.5
20260508185820 69 158 2.0 6.0 0.00 0.00 0.00 43 1013.7
20260508184820 70 180 1.0 4.0 0.00 0.00 0.00 46 1013.7
20260508183820 69 180 3.0 6.0 0.00 0.00 0.00 50 1013.8
20260508182820 69 158 5.0 11.0 0.00 0.00 0.00 46 1013.8
20260508181820 68 158 2.0 5.0 0.00 0.00 0.00 47 1013.9
20260508180820 69 180 3.0 8.0 0.00 0.00 0.00 49 1014.1
20260508175820 71 180 3.0 6.0 0.00 0.00 0.00 40 1014.1
20260508174818 70 203 1.0 3.0 0.00 0.00 0.00 41 1014.1
20260508173820 69 0.0 1.0 0.00 0.00 0.00 45 1014.2
20260508172839 68 203 1.0 4.0 0.00 0.00 0.00 42 1014.3
20260508171819 69 180 3.0 7.0 0.00 0.00 0.00 40 1014.5
20260508170820 68 225 2.0 3.0 0.00 0.00 0.00 43 1014.6
20260508165820 69 180 2.0 5.0 0.00 0.00 0.00 40 1014.7
20260508164839 67 203 2.0 5.0 0.00 0.00 0.00 41 1014.9
20260508163819 67 180 2.0 5.0 0.00 0.00 0.00 44 1014.9
20260508162819 68 203 1.0 3.0 0.00 0.00 0.00 38 1015.0
20260508161820 67 158 5.0 11.0 0.00 0.00 0.00 36 1015.1
20260508160840 69 158 3.0 5.0 0.00 0.00 0.00 37 1015.3
20260508155820 71 0.0 2.0 0.00 0.00 0.00 41 1015.3
20260508154819 69 293 1.0 2.0 0.00 0.00 0.00 39 1015.5
20260508153820 65 0.0 1.0 0.00 0.00 0.00 37 1015.6
20260508152819 65 203 1.0 2.0 0.00 0.00 0.00 37 1015.6
20260508151820 66 180 1.0 3.0 0.00 0.00 0.00 43 1015.6
20260508150819 67 180 3.0 4.0 0.00 0.00 0.00 43 1015.6
20260508145819 66 315 3.0 4.0 0.00 0.00 0.00 53 1015.6
20260508144819 65 225 2.0 6.0 0.00 0.00 0.00 51 1015.5
20260508143819 64 203 1.0 3.0 0.00 0.00 0.00 54 1015.7
20260508142819 65 0.0 1.0 0.00 0.00 0.00 47 1015.6
20260508141819 66 0.0 1.0 0.00 0.00 0.00 47 1015.7
20260508140839 65 0.0 1.0 0.00 0.00 0.00 52 1015.8
20260508135819 64 315 1.0 3.0 0.00 0.00 0.00 52 1015.9
20260508134819 63 315 3.0 5.0 0.00 0.00 0.00 50 1015.9
20260508133819 61 0.0 1.0 0.00 0.00 0.00 51 1015.8
20260508132819 61 338 1.0 2.0 0.00 0.00 0.00 54 1015.8
20260508131819 60 315 3.0 4.0 0.00 0.00 0.00 56 1016.0
20260508130819 59 0 2.0 3.0 0.00 0.00 0.00 59 1016.1
20260508125819 57 0 1.0 2.0 0.00 0.00 0.00 63 1016.0
20260508124819 56 338 1.0 3.0 0.00 0.00 0.00 65 1016.0
20260508123819 55 0.0 1.0 0.00 0.00 0.00 66 1015.8
20260508122819 54 338 2.0 4.0 0.00 0.00 0.00 68 1015.8
20260508121819 53 0.0 1.0 0.00 0.00 0.00 70 1015.8
20260508120819 52 0.0 0.0 0.00 0.00 0.00 72 1015.6
20260508115819 51 0.0 0.0 0.00 0.00 0.00 74 1015.5
20260508114839 50 0.0 0.0 0.00 0.00 0.00 75 1015.5
20260508113839 50 0.0 0.0 0.00 0.00 0.00 78 1015.5
20260508112819 49 0.0 0.0 0.00 0.00 0.00 79 1015.3
20260508111819 49 0.0 0.0 0.00 0.00 0.00 80 1015.2
20260508110818 48 0.0 0.0 0.00 0.00 0.00 80 1015.1
20260508105819 48 0.0 0.0 0.00 0.00 0.00 79 1014.9
20260508104818 48 0.0 0.0 0.00 0.00 0.00 77 1014.6
20260508103819 49 0.0 0.0 0.00 0.00 0.00 77 1014.5
20260508102819 49 0.0 0.0 0.00 0.00 0.00 77 1014.4
20260508101858 50 0.0 0.0 0.00 0.00 0.00 76 1014.3
20260508100819 50 0.0 0.0 0.00 0.00 0.00 73 1014.2
20260508095819 51 0.0 1.0 0.00 0.00 0.00 71 1014.0
20260508094839 51 338 2.0 4.0 0.00 0.00 0.00 71 1013.9
20260508093819 51 338 2.0 3.0 0.00 0.00 0.00 72 1013.9
20260508092818 52 338 6.0 8.0 0.00 0.00 0.00 73 1013.7
20260508091859 52 338 8.0 13.0 0.00 0.00 0.00 75 1013.5
20260508090818 52 338 6.0 9.0 0.00 0.00 0.00 77 1013.5
20260508085819 53 338 4.0 5.0 0.00 0.00 0.00 76 1013.5
20260508084818 53 338 6.0 9.0 0.00 0.00 0.00 74 1013.3
20260508083819 53 338 9.0 11.0 0.00 0.00 0.00 77 1013.1
20260508082819 52 338 7.0 10.0 0.00 0.00 0.00 80 1013.0
20260508081818 52 315 5.0 8.0 0.00 0.00 0.00 82 1012.9
20260508080819 52 338 4.0 5.0 0.00 0.00 0.00 83 1012.8
20260508075818 52 338 7.0 12.0 0.00 0.00 0.00 84 1012.6
20260508074920 52 315 5.0 10.0 0.00 0.00 0.00 87 1012.5
20260508073818 52 315 2.0 4.0 0.00 0.00 0.00 88 1012.3
20260508072838 52 315 7.0 12.0 0.00 0.00 0.00 89 1012.1